FENGYUN 1C DEB, 32161

Orbit data source: Space-Track

FENGYUN 1C DEB, 32161 is space debris in SSO originally from a launch on Mon, 10 May 1999 UTC launched from the Taiyaun Space Center, China (TSC). Fengyun 1C debris stems from the Chinese weather satellite Fengyun-1C, which was intentionally destroyed by a Chinese anti-satellite missile in 2007. This event dramatically increased the amount of space debris, with thousands of trackable fragments posing hazards to satellites and human spaceflight. The Fengyun 1C debris cloud has become a focal point in discussions about space sustainability and the need for international regulations to prevent the creation of new debris.

Loading next visibility...
Identifier
32161, 1999-025CTF
Orbit
SSO
Country
Flag of CNCN / PRC
Related business
Manufacturer
Unknown
Mission
Spacecraft
Bus & Motor
Unknown
Mass
Unknown
Launch date (UTC)
1999-05-10 (26 years ago)
Launch vehicle
Unknown
Launch site
Taiyaun Space Center, China (TSC)
Object type
Payload
Rocket body
Debris
Shape & HBR
Unknown shape, 0.1 m
Radar Cross Section
Small (<0.1 m²)

Expand to show TLE details & history
Last TLE update: 2 days ago

TLE from 2 days ago
0 FENGYUN 1C DEB
1 32161U 99025CTF 25305.04048825  .00000277  00000-0  19332-3 0  9991
2 32161  98.8293  50.9833 0137097  37.0303 324.0230 14.01814851628457
Epoch: 2025-11-01T00:58Z
TLE epoch observation values (Epoch: 2025-11-01T00:58:18.184Z)
Latitude
0.00003°
Longitude
-4.16875°
Altitude
810.257 km
Speed
7.489 km/s
True Right ascension
03h 23m 55s
True Declination
0° 00' 00"
Sunlit
Object was in full shadow at epoch
Visualization orbit readout
Latitude
Unknown
Longitude
Unknown
Altitude
Unknown
Speed
Unknown
Apparent Right ascension
Unknown
Apparent Declination
Unknown
Sunlit
N/A
Visualization observer readout
Local Sidereal Time
08:42:29
Azimuth
Unknown
Elevation
Unknown
Doppler factor
Unknown
Orbital elements
Apogee altitude
984.277 km
Perigee altitude
785.134 km
Semi-major axis
7,262.842 km
Eccentricity
0.01371
Inclination
98.8293°
RAAN
50.9833°
Arg. of periapsis
37.0303°
True anomaly
323.08716°
Mean anomaly
324.023°
Eccentric anomaly
323.55638°
Mean motion
3.50658 °/min
Orbital period
102.66 mins
BSTAR
0.00019332
Loading maneuver chart data...
Computing Atmospheric mass density...

Documentation

Showing up to 5 results
|